{"data":{"norad_id":43677,"intl_designator":"2018-084G","name":"TEN-KOH","alt_names":[],"object_type":"PAYLOAD","status":"ACTIVE","operator":null,"country":"JPN","launch_date":"2018-10-29","launch_site_code":"TANSC","launch_vehicle":null,"mission":null,"orbit_class":"UNKNOWN","rcs_meters":null,"size_class":null,"mass_kg":null,"dimensions":null,"purposes":[],"wikipedia_slug":null,"has_3d_model":false,"image_url":null,"decayed_at":null,"tle_current":{"epoch":"2026-09-19T18:52:17.985792Z","epoch_age_seconds":116571,"freshness":"FRESH","line1":"1 43677U 18084G   26262.78631928  .00000737  00000+0  59286-4 0  9990","line2":"2 43677  98.0719  99.1525 0009818 153.9496 206.2224 15.03252584430377","mean_motion":15.03252584,"eccentricity":0.0009818,"inclination_deg":98.0719,"raan_deg":99.1525,"arg_perigee_deg":153.9496,"mean_anomaly_deg":206.2224,"bstar":5.9286e-5,"rev_number":43037,"period_min":95.792285030923,"perigee_km":550.06596702262,"apogee_km":563.68355611764,"semimajor_km":6935.0117615701,"source":"CELESTRAK","updated_at":"2026-09-20T09:00:14.367719Z"}}}